Date,TemperatureHighF,TemperatureAvgF,TemperatureLowF,DewpointHighF,DewpointAvgF,DewpointLowF,HumidityHigh,HumidityAvg,HumidityLow,PressureMaxIn,PressureMinIn,WindSpeedMaxMPH,WindSpeedAvgMPH,GustSpeedMaxMPH,PrecipitationSumIn
2013-4-1,41,31,22,29,24,16,95,75,49,30.10,29.96,9,-13,11,0.00
2013-4-2,35,29,27,31,28,26,95,93,83,30.17,30.03,6,-7,8,0.10
2013-4-3,46,34,19,31,24,17,95,70,38,30.23,30.12,15,-5,20,0.37
2013-4-4,51,42,34,25,21,14,66,45,24,30.19,29.95,21,2,24,0.00
2013-4-5,53,42,33,31,22,17,88,47,27,29.95,29.55,36,-1,40,0.01
2013-4-6,46,37,30,28,21,12,76,54,33,29.91,29.71,28,-9,37,0.01
2013-4-7,43,36,31,29,23,17,90,58,40,29.86,29.68,37,-10,38,0.01
2013-4-8,46,36,22,29,23,14,93,63,38,29.72,29.41,15,-19,18,0.00
2013-4-9,22,9,0,20,5,-4,92,85,78,30.36,29.61,9,-26,10,0.00
2013-4-10,24,12,-5,18,6,-10,88,79,51,30.46,30.17,25,-22,32,0.16
2013-4-11,38,30,21,27,20,10,82,66,53,30.19,29.92,27,-20,35,0.04
2013-4-12,41,32,24,27,22,12,90,68,32,29.97,29.86,26,-11,33,0.05
2013-4-13,47,37,24,31,17,8,93,46,27,29.94,29.41,46,-5,55,0.01
2013-4-14,32,22,17,30,13,0,93,69,38,29.87,29.41,31,-24,34,0.00
2013-4-15,25,20,15,22,16,10,92,86,57,30.11,29.83,11,-2,20,0.00
2013-4-16,24,18,14,21,16,11,100,91,87,30.14,29.99,8,-22,11,0.02
2013-4-17,22,14,3,19,12,-1,100,89,83,30.33,30.05,10,-7,10,0.00
2013-4-18,22,12,-4,9,2,-8,95,67,46,30.52,30.30,30,-31,33,0.00
2013-4-19,35,26,18,21,13,5,70,57,47,30.47,30.08,33,-6,36,0.05
2013-4-20,40,33,27,28,22,19,82,66,44,30.08,29.96,29,-17,29,0.08
2013-4-21,42,34,28,25,20,14,82,57,35,30.10,29.97,24,-3,29,0.00
2013-4-22,34,23,11,29,20,8,92,86,54,30.30,29.91,26,-27,39,0.10
2013-4-23,24,15,8,18,10,5,88,82,71,30.46,30.25,12,-13,13,0.02
2013-4-24,36,26,9,17,10,4,86,53,32,30.44,30.35,31,-23,31,0.01
2013-4-25,48,35,18,23,12,0,70,41,18,30.35,30.02,33,-3,39,0.05
2013-4-26,48,38,27,22,16,9,62,41,24,30.28,30.09,10,-12,11,0.00
2013-4-27,54,44,32,20,14,10,55,31,19,30.26,30.02,21,1,27,0.00
2013-4-28,58,49,39,29,20,13,54,32,21,30.02,29.78,22,2,27,0.00
2013-4-29,60,49,32,32,24,16,83,42,20,29.83,29.52,34,2,35,0.00
2013-4-30,51,41,29,35,29,19,94,65,30,29.83,29.48,22,-12,22,0.02